• Em Portugal
  • Lista de países
  • Para 7 dias
  • Temperatura da água
  • Mapas de satélite
  • Mapa do tempo
  • Widgets de tempo
  • user-avatar
    Iniciar Sessão

    Previsão horária em Sharan

    Hoje, 22 Janeiro, Segunda-feira

    Tempo Temperatura Precipitação Vento Pressão Humidade
    00:00 +2°C° 0 mm 2 m/s 582 mmHg 17%
    01:00 +2°C° 0 mm 2 m/s 582 mmHg 17%
    02:00 +1°C° 0 mm 2 m/s 581 mmHg 18%
    03:00 +1°C° 0 mm 2 m/s 581 mmHg 18%
    04:00 +1°C° 0 mm 2 m/s 581 mmHg 17%
    05:00 -1°C° 0 mm 2 m/s 580 mmHg 18%
    06:00 -1°C° 0 mm 2 m/s 581 mmHg 18%
    07:00 -1°C° 0 mm 2 m/s 581 mmHg 18%
    08:00 -1°C° 0 mm 2 m/s 581 mmHg 18%
    09:00 +2°C° 0 mm 2 m/s 582 mmHg 16%
    10:00 +4°C° 0 mm 2 m/s 582 mmHg 14%
    11:00 +5°C° 0 mm 3 m/s 583 mmHg 12%
    12:00 +7°C° 0 mm 3 m/s 583 mmHg 11%
    13:00 +7°C° 0 mm 3 m/s 583 mmHg 11%
    14:00 +8°C° 0 mm 3 m/s 583 mmHg 11%
    15:00 +7°C° 0 mm 3 m/s 582 mmHg 12%
    16:00 +7°C° 0 mm 3 m/s 582 mmHg 14%
    17:00 +5°C° 0 mm 3 m/s 582 mmHg 17%
    18:00 +4°C° 0 mm 3 m/s 582 mmHg 22%
    19:00 +3°C° 0 mm 3 m/s 582 mmHg 26%
    20:00 +1°C° 0 mm 3 m/s 581 mmHg 31%
    21:00 +2°C° 0 mm 2 m/s 581 mmHg 34%
    22:00 +1°C° 0 mm 2 m/s 581 mmHg 37%
    23:00 +2°C° 0 mm 1 m/s 581 mmHg 40%

    Amanhã, 23 Janeiro, Terça-feira

    Tempo Temperatura Precipitação Vento Pressão Humidade
    00:00 +1°C° 0 mm 1 m/s 581 mmHg 39%
    01:00 -1°C° 0 mm 2 m/s 581 mmHg 38%
    02:00 -2°C° 0 mm 2 m/s 581 mmHg 37%
    03:00 -2°C° 0 mm 2 m/s 581 mmHg 35%
    04:00 -2°C° 0 mm 2 m/s 581 mmHg 33%
    05:00 -3°C° 0 mm 2 m/s 581 mmHg 31%
    06:00 -3°C° 0 mm 2 m/s 581 mmHg 29%
    07:00 -3°C° 0 mm 2 m/s 581 mmHg 27%
    08:00 -3°C° 0 mm 2 m/s 582 mmHg 26%
    09:00 -1°C° 0 mm 2 m/s 582 mmHg 23%
    10:00 +1°C° 0 mm 2 m/s 582 mmHg 20%
    11:00 +3°C° 0 mm 2 m/s 583 mmHg 17%
    12:00 +4°C° 0 mm 2 m/s 583 mmHg 16%
    13:00 +5°C° 0 mm 2 m/s 583 mmHg 16%
    14:00 +6°C° 0 mm 2 m/s 582 mmHg 16%
    15:00 +5°C° 0 mm 2 m/s 582 mmHg 17%
    16:00 +5°C° 0 mm 2 m/s 582 mmHg 18%
    17:00 +5°C° 0 mm 2 m/s 582 mmHg 19%
    18:00 +4°C° 0 mm 2 m/s 582 mmHg 23%
    19:00 +3°C° 0 mm 2 m/s 582 mmHg 27%
    20:00 +2°C° 0 mm 1 m/s 582 mmHg 31%
    21:00 +2°C° 0 mm 1 m/s 582 mmHg 34%
    22:00 +1°C° 0 mm 1 m/s 582 mmHg 38%
    23:00 +1°C° 0 mm 1 m/s 581 mmHg 41%

    Depois de amanhã, 24 Janeiro, Quarta-feira

    Tempo Temperatura Precipitação Vento Pressão Humidade
    00:00 0°C° 0 mm 1 m/s 581 mmHg 45%
    01:00 0°C° 0 mm 1 m/s 581 mmHg 49%
    02:00 0°C° 0 mm 1 m/s 581 mmHg 52%
    03:00 0°C° 0 mm 1 m/s 581 mmHg 54%
    04:00 -1°C° 0 mm 1 m/s 580 mmHg 57%
    05:00 -1°C° 0 mm 1 m/s 580 mmHg 59%
    06:00 -1°C° 0 mm 1 m/s 580 mmHg 59%
    07:00 -1°C° 0 mm 1 m/s 580 mmHg 59%
    08:00 -1°C° 0 mm 1 m/s 581 mmHg 59%
    09:00 +1°C° 0 mm 1 m/s 581 mmHg 51%
    10:00 +3°C° 0 mm 1 m/s 582 mmHg 42%
    11:00 +5°C° 0 mm 1 m/s 583 mmHg 33%
    12:00 +6°C° 0 mm 1 m/s 583 mmHg 30%
    13:00 +6°C° 0 mm 2 m/s 583 mmHg 27%
    14:00 +7°C° 0 mm 2 m/s 583 mmHg 24%
    15:00 +7°C° 0 mm 2 m/s 583 mmHg 25%
    16:00 +7°C° 0 mm 2 m/s 583 mmHg 26%
    17:00 +6°C° 0 mm 2 m/s 583 mmHg 27%
    18:00 +5°C° 0 mm 2 m/s 582 mmHg 31%
    19:00 +4°C° 0 mm 2 m/s 582 mmHg 35%
    20:00 +3°C° 0 mm 1 m/s 582 mmHg 39%
    21:00 +3°C° 0 mm 1 m/s 582 mmHg 40%
    22:00 +2°C° 0 mm 1 m/s 582 mmHg 41%
    23:00 +2°C° 0 mm 1 m/s 582 mmHg 43%

    25 Janeiro, Quinta-feira

    Tempo Temperatura Precipitação Vento Pressão Humidade
    00:00 +1°C° 0 mm 1 m/s 582 mmHg 44%
    01:00 +1°C° 0 mm 1 m/s 582 mmHg 45%
    02:00 +1°C° 0 mm 1 m/s 581 mmHg 46%
    03:00 0°C° 0 mm 1 m/s 581 mmHg 47%
    04:00 0°C° 0 mm 1 m/s 581 mmHg 48%
    05:00 0°C° 0 mm 1 m/s 581 mmHg 49%
    06:00 0°C° 0 mm 1 m/s 581 mmHg 48%
    07:00 0°C° 0 mm 1 m/s 581 mmHg 47%
    08:00 0°C° 0 mm 1 m/s 582 mmHg 45%
    09:00 +1°C° 0 mm 2 m/s 583 mmHg 39%
    10:00 +3°C° 0 mm 2 m/s 583 mmHg 33%
    11:00 +4°C° 0 mm 3 m/s 584 mmHg 27%
    12:00 +5°C° 0 mm 3 m/s 584 mmHg 25%
    13:00 +6°C° 0 mm 4 m/s 583 mmHg 23%
    14:00 +7°C° 0 mm 4 m/s 583 mmHg 21%
    15:00 +6°C° 0 mm 5 m/s 583 mmHg 22%
    16:00 +6°C° 0 mm 5 m/s 583 mmHg 22%
    17:00 +6°C° 0 mm 5 m/s 583 mmHg 22%
    18:00 +5°C° 0 mm 5 m/s 583 mmHg 25%
    19:00 +3°C° 0 mm 4 m/s 583 mmHg 29%
    20:00 +1°C° 0 mm 4 m/s 583 mmHg 32%
    21:00 +1°C° 0 mm 3 m/s 583 mmHg 33%
    22:00 +1°C° 0 mm 3 m/s 583 mmHg 35%
    23:00 0°C° 0 mm 3 m/s 583 mmHg 36%

    26 Janeiro, Sexta-feira

    Tempo Temperatura Precipitação Vento Pressão Humidade
    00:00 0°C° 0 mm 3 m/s 583 mmHg 37%
    01:00 -1°C° 0 mm 2 m/s 582 mmHg 38%
    02:00 -1°C° 0 mm 2 m/s 582 mmHg 39%
    03:00 -2°C° 0 mm 2 m/s 582 mmHg 40%
    04:00 -2°C° 0 mm 2 m/s 582 mmHg 40%
    05:00 -2°C° 0 mm 3 m/s 582 mmHg 41%
    06:00 -2°C° 0 mm 3 m/s 582 mmHg 41%
    07:00 -2°C° 0 mm 3 m/s 583 mmHg 41%
    08:00 -2°C° 0 mm 3 m/s 583 mmHg 40%
    09:00 -1°C° 0 mm 3 m/s 584 mmHg 35%
    10:00 +1°C° 0 mm 3 m/s 584 mmHg 30%
    11:00 +3°C° 0 mm 3 m/s 585 mmHg 25%
    12:00 +3°C° 0 mm 3 m/s 584 mmHg 23%
    13:00 +4°C° 0 mm 3 m/s 584 mmHg 21%
    14:00 +6°C° 0 mm 2 m/s 584 mmHg 19%
    15:00 +6°C° 0 mm 2 m/s 583 mmHg 20%
    16:00 +6°C° 0 mm 2 m/s 583 mmHg 20%
    17:00 +6°C° 0 mm 2 m/s 583 mmHg 21%
    18:00 +4°C° 0 mm 2 m/s 583 mmHg 24%
    19:00 +3°C° 0 mm 2 m/s 583 mmHg 27%
    20:00 +2°C° 0 mm 2 m/s 583 mmHg 29%
    21:00 +1°C° 0 mm 2 m/s 583 mmHg 31%
    22:00 +1°C° 0 mm 2 m/s 583 mmHg 32%
    23:00 -1°C° 0 mm 2 m/s 583 mmHg 34%

    27 Janeiro, Sábado

    Tempo Temperatura Precipitação Vento Pressão Humidade
    00:00 -1°C° 0 mm 2 m/s 582 mmHg 35%
    01:00 -1°C° 0 mm 2 m/s 582 mmHg 37%
    02:00 -2°C° 0 mm 2 m/s 582 mmHg 38%
    03:00 -2°C° 0 mm 2 m/s 582 mmHg 37%
    04:00 -2°C° 0 mm 2 m/s 581 mmHg 37%
    05:00 -3°C° 0 mm 2 m/s 581 mmHg 36%
    06:00 -3°C° 0 mm 2 m/s 582 mmHg 35%
    07:00 -3°C° 0 mm 2 m/s 582 mmHg 33%
    08:00 -3°C° 0 mm 2 m/s 582 mmHg 31%
    09:00 -1°C° 0 mm 2 m/s 583 mmHg 28%
    10:00 +2°C° 0 mm 2 m/s 583 mmHg 24%
    11:00 +4°C° 0 mm 2 m/s 584 mmHg 20%
    12:00 +4°C° 0 mm 2 m/s 583 mmHg 19%
    13:00 +5°C° 0 mm 2 m/s 583 mmHg 18%
    14:00 +5°C° 0 mm 3 m/s 583 mmHg 17%
    15:00 +6°C° 0 mm 2 m/s 583 mmHg 18%
    16:00 +6°C° 0 mm 2 m/s 582 mmHg 19%
    17:00 +6°C° 0 mm 2 m/s 582 mmHg 20%
    18:00 +5°C° 0 mm 2 m/s 582 mmHg 23%
    19:00 +4°C° 0 mm 2 m/s 582 mmHg 26%
    20:00 +3°C° 0 mm 1 m/s 582 mmHg 29%
    21:00 +3°C° 0 mm 1 m/s 582 mmHg 30%
    22:00 +2°C° 0 mm 1 m/s 582 mmHg 32%
    23:00 +2°C° 0 mm 1 m/s 582 mmHg 33%
    Mostrar mais